| time (UTC) | temp F | wind direction | speed MPH | gust MPH | rain 1hr in | rain 24hr in | rain mn in | humidity % | barometer mb |
| 20260508064619 | 41 | 317 | 0.0 | 2.0 | 0.00 | 0.02 | 0.00 | 61 | 1010.7 |
| 20260508063119 | 42 | 317 | 0.0 | 3.0 | 0.00 | 0.02 | 0.00 | 61 | 1010.9 |
| 20260508061607 | 42 | 315 | 2.0 | 7.0 | 0.00 | 0.02 | 0.00 | 59 | 1011.1 |
| 20260508060132 | 42 | 313 | 0.0 | 4.0 | 0.00 | 0.02 | 0.00 | 57 | 1011.1 |
| 20260508054643 | 42 | 326 | 2.0 | 4.0 | 0.00 | 0.02 | 0.02 | 56 | 1011.3 |
| 20260508053016 | 43 | 308 | 1.0 | 9.0 | 0.00 | 0.02 | 0.02 | 53 | 1011.3 |
| 20260508051630 | 43 | 300 | 0.0 | 2.0 | 0.00 | 0.02 | 0.02 | 54 | 1011.5 |
| 20260508050041 | 44 | 300 | 1.0 | 5.0 | 0.00 | 0.02 | 0.02 | 54 | 1011.8 |
| 20260508044524 | 44 | 5 | 0.0 | 5.0 | 0.00 | 0.02 | 0.02 | 53 | 1011.9 |
| 20260508043042 | 44 | 318 | 0.0 | 3.0 | 0.00 | 0.02 | 0.02 | 52 | 1012.1 |
| 20260508041526 | 44 | 325 | 0.0 | 2.0 | 0.00 | 0.02 | 0.02 | 50 | 1012.3 |
| 20260508040055 | 45 | 325 | 1.0 | 6.0 | 0.00 | 0.02 | 0.02 | 49 | 1012.6 |
| 20260508034606 | 45 | 319 | 1.0 | 4.0 | 0.00 | 0.02 | 0.02 | 49 | 1012.8 |
| 20260508033120 | 45 | 319 | 0.0 | 6.0 | 0.00 | 0.02 | 0.02 | 49 | 1012.6 |
| 20260508031511 | 45 | 319 | 2.0 | 3.0 | 0.00 | 0.02 | 0.02 | 47 | 1012.5 |
| 20260508030134 | 45 | 319 | 2.0 | 5.0 | 0.00 | 0.02 | 0.02 | 45 | 1012.2 |
| 20260508024502 | 46 | 62 | 1.0 | 4.0 | 0.00 | 0.02 | 0.02 | 44 | 1012.1 |
| 20260508023046 | 46 | 298 | 1.0 | 3.0 | 0.00 | 0.02 | 0.02 | 42 | 1012.2 |
| 20260508021536 | 46 | 270 | 2.0 | 3.0 | 0.00 | 0.02 | 0.02 | 44 | 1012.2 |
| 20260508020015 | 47 | 270 | 0.0 | 1.0 | 0.00 | 0.02 | 0.02 | 40 | 1012.2 |
| 20260508014629 | 48 | 270 | 0.0 | 3.0 | 0.00 | 0.02 | 0.02 | 42 | 1012.3 |
| 20260508013126 | 48 | 270 | 0.0 | 10.0 | 0.00 | 0.02 | 0.02 | 40 | 1012.2 |
| 20260508011629 | 49 | 236 | 1.0 | 12.0 | 0.00 | 0.02 | 0.02 | 38 | 1012.3 |
| 20260508010044 | 50 | 313 | 5.0 | 10.0 | 0.00 | 0.02 | 0.02 | 34 | 1012.4 |
| 20260508004526 | 52 | 289 | 5.0 | 12.0 | 0.00 | 0.04 | 0.02 | 32 | 1012.3 |
| 20260508003024 | 53 | 281 | 3.0 | 10.0 | 0.00 | 0.04 | 0.02 | 34 | 1012.2 |
| 20260508001537 | 54 | 298 | 3.0 | 9.0 | 0.00 | 0.04 | 0.02 | 32 | 1012.4 |
| 20260508000129 | 51 | 259 | 4.0 | 13.0 | 0.00 | 0.04 | 0.02 | 36 | 1012.5 |
| 20260507234624 | 50 | 309 | 4.0 | 10.0 | 0.00 | 0.08 | 0.02 | 37 | 1012.5 |
| 20260507233122 | 51 | 315 | 4.0 | 10.0 | 0.00 | 0.08 | 0.02 | 37 | 1012.7 |
| 20260507231512 | 51 | 313 | 3.0 | 11.0 | 0.00 | 0.08 | 0.02 | 38 | 1012.7 |
| 20260507230042 | 50 | 277 | 2.0 | 9.0 | 0.00 | 0.08 | 0.02 | 41 | 1012.7 |
| 20260507224528 | 51 | 306 | 6.0 | 12.0 | 0.00 | 0.11 | 0.02 | 37 | 1012.8 |
| 20260507223046 | 51 | 317 | 7.0 | 13.0 | 0.00 | 0.11 | 0.02 | 34 | 1012.9 |
| 20260507221548 | 54 | 318 | 5.0 | 11.0 | 0.00 | 0.11 | 0.02 | 35 | 1013.2 |
| 20260507220054 | 54 | 295 | 6.0 | 13.0 | 0.00 | 0.11 | 0.02 | 37 | 1013.5 |
| 20260507214600 | 54 | 333 | 3.0 | 17.0 | 0.00 | 0.16 | 0.02 | 43 | 1013.9 |
| 20260507213047 | 54 | 279 | 5.0 | 13.0 | 0.00 | 0.16 | 0.02 | 38 | 1014.2 |
| 20260507211555 | 53 | 311 | 4.0 | 13.0 | 0.00 | 0.16 | 0.02 | 36 | 1014.5 |
| 20260507210106 | 54 | 323 | 4.0 | 12.0 | 0.00 | 0.16 | 0.02 | 37 | 1014.8 |
| 20260507204603 | 52 | 304 | 4.0 | 11.0 | 0.00 | 0.23 | 0.02 | 41 | 1014.9 |
| 20260507203108 | 53 | 307 | 4.0 | 15.0 | 0.00 | 0.23 | 0.02 | 38 | 1015.1 |
| 20260507201614 | 52 | 308 | 4.0 | 9.0 | 0.00 | 0.23 | 0.02 | 37 | 1015.5 |
| 20260507200122 | 51 | 294 | 3.0 | 16.0 | 0.00 | 0.23 | 0.02 | 43 | 1016.1 |
| 20260507194516 | 49 | 350 | 0.0 | 8.0 | 0.00 | 0.28 | 0.02 | 43 | 1016.4 |
| 20260507193041 | 48 | 30 | 0.0 | 6.0 | 0.00 | 0.28 | 0.02 | 45 | 1016.7 |
| 20260507191627 | 48 | 312 | 2.0 | 8.0 | 0.00 | 0.28 | 0.02 | 47 | 1017.2 |
| 20260507190121 | 47 | 348 | 1.0 | 8.0 | 0.00 | 0.28 | 0.02 | 46 | 1017.6 |
| 20260507184629 | 46 | 263 | 3.0 | 10.0 | 0.00 | 0.28 | 0.02 | 48 | 1017.8 |
| 20260507183046 | 45 | 302 | 2.0 | 5.0 | 0.00 | 0.28 | 0.02 | 49 | 1018.2 |
| 20260507181529 | 45 | 277 | 3.0 | 8.0 | 0.00 | 0.28 | 0.02 | 49 | 1018.4 |
| 20260507180100 | 46 | 285 | 2.0 | 6.0 | 0.00 | 0.28 | 0.02 | 52 | 1018.5 |
| 20260507174608 | 46 | 304 | 1.0 | 4.0 | 0.00 | 0.28 | 0.02 | 53 | 1018.5 |
| 20260507173105 | 46 | 319 | 3.0 | 9.0 | 0.00 | 0.28 | 0.02 | 47 | 1019.0 |
| 20260507171613 | 45 | 312 | 2.0 | 5.0 | 0.00 | 0.28 | 0.02 | 56 | 1019.3 |
| 20260507170110 | 45 | 318 | 2.0 | 9.0 | 0.01 | 0.28 | 0.02 | 50 | 1019.7 |
| 20260507164619 | 43 | 312 | 1.0 | 9.0 | 0.01 | 0.28 | 0.02 | 53 | 1020.1 |
| 20260507163013 | 42 | 247 | 1.0 | 8.0 | 0.02 | 0.28 | 0.02 | 51 | 1020.5 |
| 20260507161535 | 43 | 273 | 1.0 | 5.0 | 0.02 | 0.28 | 0.02 | 48 | 1020.6 |
| 20260507160043 | 41 | 321 | 2.0 | 8.0 | 0.01 | 0.28 | 0.01 | 48 | 1021.0 |
| 20260507154545 | 41 | 22 | 3.0 | 6.0 | 0.01 | 0.28 | 0.01 | 47 | 1021.1 |
| 20260507153101 | 40 | 28 | 1.0 | 9.0 | 0.00 | 0.27 | 0.00 | 47 | 1021.2 |
| 20260507151553 | 39 | 284 | 1.0 | 4.0 | 0.00 | 0.27 | 0.00 | 47 | 1021.4 |
| 20260507150104 | 38 | 297 | 1.0 | 5.0 | 0.00 | 0.27 | 0.00 | 51 | 1021.5 |
| 20260507144611 | 36 | 323 | 2.0 | 5.0 | 0.00 | 0.27 | 0.00 | 51 | 1021.5 |
| 20260507143059 | 36 | 32 | 2.0 | 6.0 | 0.00 | 0.27 | 0.00 | 49 | 1021.6 |
| 20260507141611 | 35 | 333 | 1.0 | 4.0 | 0.00 | 0.27 | 0.00 | 53 | 1021.8 |
| 20260507140123 | 34 | 323 | 1.0 | 5.0 | 0.00 | 0.27 | 0.00 | 52 | 1022.1 |
| 20260507134607 | 33 | 105 | 1.0 | 3.0 | 0.00 | 0.27 | 0.00 | 58 | 1022.0 |
| 20260507133122 | 32 | 49 | 0.0 | 3.0 | 0.00 | 0.27 | 0.00 | 64 | 1022.0 |
| 20260507131624 | 31 | 17 | 1.0 | 4.0 | 0.00 | 0.27 | 0.00 | 60 | 1022.1 |
| 20260507130132 | 29 | 62 | 2.0 | 6.0 | 0.00 | 0.27 | 0.00 | 62 | 1022.1 |
| 20260507124636 | 26 | 87 | 3.0 | 7.0 | 0.00 | 0.27 | 0.00 | 68 | 1021.9 |
| 20260507123117 | 26 | 80 | 1.0 | 5.0 | 0.00 | 0.27 | 0.00 | 67 | 1021.9 |
| 20260507121509 | 26 | 84 | 1.0 | 4.0 | 0.00 | 0.27 | 0.00 | 68 | 1022.0 |
| 20260507120131 | 26 | 88 | 1.0 | 3.0 | 0.00 | 0.27 | 0.00 | 66 | 1021.9 |
| 20260507114510 | 26 | 92 | 3.0 | 7.0 | 0.00 | 0.27 | 0.00 | 65 | 1021.8 |
| 20260507113016 | 26 | 44 | 2.0 | 7.0 | 0.00 | 0.27 | 0.00 | 65 | 1021.9 |
| 20260507111617 | 25 | 94 | 2.0 | 8.0 | 0.00 | 0.27 | 0.00 | 67 | 1022.0 |
| 20260507110120 | 26 | 82 | 2.0 | 4.0 | 0.00 | 0.27 | 0.00 | 66 | 1022.1 |
| 20260507104524 | 26 | 117 | 4.0 | 8.0 | 0.00 | 0.27 | 0.00 | 63 | 1021.9 |
| 20260507103013 | 26 | 57 | 2.0 | 4.0 | 0.00 | 0.27 | 0.00 | 64 | 1021.9 |
| 20260507101513 | 26 | 95 | 2.0 | 7.0 | 0.00 | 0.27 | 0.00 | 63 | 1021.9 |
| 20260507100039 | 26 | 78 | 2.0 | 5.0 | 0.00 | 0.27 | 0.00 | 63 | 1021.9 |
| 20260507094633 | 25 | 96 | 2.0 | 6.0 | 0.00 | 0.27 | 0.00 | 66 | 1021.7 |
| 20260507093025 | 25 | 71 | 2.0 | 7.0 | 0.00 | 0.27 | 0.00 | 65 | 1021.9 |
| 20260507091508 | 24 | 100 | 4.0 | 8.0 | 0.00 | 0.27 | 0.00 | 69 | 1021.7 |
| 20260507090116 | 24 | 57 | 2.0 | 4.0 | 0.00 | 0.27 | 0.00 | 71 | 1022.1 |
| 20260507084614 | 24 | 65 | 0.0 | 3.0 | 0.00 | 0.27 | 0.00 | 71 | 1022.1 |
| 20260507083112 | 23 | 73 | 1.0 | 2.0 | 0.00 | 0.27 | 0.00 | 73 | 1022.0 |
| 20260507081612 | 24 | 67 | 0.0 | 0.0 | 0.00 | 0.27 | 0.00 | 72 | 1021.9 |
| 20260507080132 | 24 | 67 | 0.0 | 0.0 | 0.00 | 0.27 | 0.00 | 72 | 1022.0 |
| 20260507074518 | 24 | 67 | 0.0 | 4.0 | 0.00 | 0.27 | 0.00 | 74 | 1021.8 |
| 20260507073130 | 24 | 60 | 2.0 | 3.0 | 0.00 | 0.27 | 0.00 | 74 | 1021.8 |
| 20260507071627 | 25 | 43 | 0.0 | 0.0 | 0.00 | 0.27 | 0.00 | 73 | 1022.0 |
| 20260507070122 | 25 | 43 | 0.0 | 0.0 | 0.00 | 0.27 | 0.00 | 73 | 1021.7 |